STARLINK-34444

Last updated on Thu Jul 03 2025 00:02:06 GMT+0000 (Coordinated Universal Time)

1 64369U 25126AB 25183.58335648 -.01402465 00000+0 -16948-1 0 9997 2 64369 69.9996 310.1844 0003168 268.8435 340.1327 15.63219823 4322
UTC large
Height (km)
Speed (km/s)
/
Latitude / Longitude
Inclination (degrees)
Orbital Period (minutes)
Azimuth
Elevation
Range (km)
Doppler Factor

Next 0 passes for location: London (51.5072 / 0.1276)

Sorry there are no passes over London.